Home   Weather   Neubrandenburg   Past weeks

Flag for Germany Past Weather in Neubrandenburg, Mecklenburg-Western Pomerania, Germany — Yesterday and Last 2 Weeks

Now
48 °F

Partly sunny.


Feels Like: 42 °F
Forecast: 46 / 48 °F
Wind: 15 mph from West

Location: Heringsdorf

Current Time: Dec 9, 2016 at 2:26:17 pm

Latest Report: Dec 9, 2016 at 1:50 pm


Visibility: N/A

Pressure: 30.12 "Hg

Humidity: 76%

Dew Point: 41 °F

Location of NeubrandenburgLocation

Past Weather in Neubrandenburg — Graph

°F

Neubrandenburg Temperature Yesterday

Maximum temperature yesterday: 46 °F (at 11:20 am)
Minimum temperature yesterday: 43 °F (at 8:20 am)
Average temperature yesterday: 45 °F

High & Low Weather Summary for the Past Weeks

 TemperatureHumidityPressure
High48 °F (Dec 9, 11:50 am)100% (Nov 25, 8:20 am)30.51 "Hg (Nov 25, 8:20 am)
Low30 °F (Dec 3, 8:20 am)56% (Nov 28, 11:20 am)29.71 "Hg (Dec 1, 3:50 pm)
Average38 °F83%30.19 "Hg
* Reported Nov 24 12:20 pm — Dec 9 12:50 pm, Neubrandenburg, Weather by CustomWeather, © 2016

Note: Actual official high and low records may vary slightly from our data, if they occured in-between our weather recording intervals... More about our weather records

Advertising

Neubrandenburg Weather History for the Previous 24 Hours

Scroll right to see more
 ConditionsComfort  
Time TempWeatherWind HumidityBarometerVisibility
12:50 pm
Fri, Dec 9
48 °FPartly sunny.15 mph87%30.09 "HgN/A
12:20 pm48 °FPartly sunny.15 mph87%30.09 "Hg6 mi
11:50 am48 °FPartly sunny.15 mph87%30.09 "Hg5 mi
11:20 am46 °FLow clouds.13 mph93%30.09 "Hg4 mi
10:50 am46 °FDrizzle. Fog.16 mph93%30.09 "Hg2 mi
10:20 am46 °FDrizzle. Fog.15 mph93%30.09 "Hg1 mi
9:50 am45 °FDrizzle. Fog.15 mph100%30.09 "Hg1 mi
9:20 am45 °FFog.15 mph93%30.09 "Hg2 mi
8:50 am45 °FFog.15 mph93%30.07 "Hg2 mi
8:20 am45 °FFog.15 mph93%30.07 "Hg2 mi
4:50 pm
Thu, Dec 8
45 °FPassing clouds.12 mph87%30.12 "HgN/A
4:20 pm45 °FPassing clouds.15 mph87%30.12 "HgN/A
3:50 pm46 °FPassing clouds.15 mph82%30.12 "HgN/A
3:20 pm46 °FPartly sunny.12 mph82%30.12 "HgN/A
2:50 pm46 °FPartly sunny.13 mph82%30.12 "HgN/A
2:20 pm45 °FPartly sunny.13 mph87%30.12 "HgN/A
Weather by CustomWeather, © 2016

See weather overviewHow to use our weather pages